MDT,Max TemperatureF,Mean TemperatureF,Min TemperatureF,Max Dew PointF,MeanDew PointF,Min DewpointF,Max Humidity, Mean Humidity, Min Humidity, Max Sea Level PressureIn, Mean Sea Level PressureIn, Min Sea Level PressureIn, Max VisibilityMiles, Mean VisibilityMiles, Min VisibilityMiles, Max Wind SpeedMPH, Mean Wind SpeedMPH, Max Gust SpeedMPH,PrecipitationIn, CloudCover, Events, WindDirDegrees
2013-6-1,68,55,42,38,36,33,82,55,27,30.27,30.13,29.98,10,10,10,15,8,21,0.00,3,,114
2013-6-2,84,64,43,41,32,21,66,39,12,29.98,29.75,29.49,10,10,10,28,7,37,0.00,0,,240
2013-6-3,71,59,46,33,24,12,42,28,14,29.90,29.68,29.47,10,10,10,22,11,31,0.00,0,,287
2013-6-4,62,51,40,36,33,27,70,55,39,30.18,30.04,29.92,10,10,10,18,6,23,0.00,4,,351
2013-6-5,70,57,43,37,34,30,65,46,26,30.16,30.06,29.94,10,10,10,14,5,17,0.00,2,,57
2013-6-6,78,62,45,42,36,30,56,40,23,30.01,29.96,29.90,10,10,10,13,4,18,0.00,1,,259
2013-6-7,82,65,48,44,39,33,66,44,21,29.96,29.79,29.59,10,10,10,22,6,33,0.00,1,,308
2013-6-8,80,67,54,43,38,32,57,38,19,29.86,29.76,29.56,10,10,10,18,6,23,0.00,0,,293
2013-6-9,91,71,50,42,36,28,61,37,12,29.88,29.77,29.65,10,10,10,24,7,35,0.00,0,,272
2013-6-10,94,78,61,49,35,24,47,29,10,29.84,29.62,29.55,10,10,10,29,8,53,0.00,0,,254
2013-6-11,84,67,50,49,35,28,51,33,14,29.93,29.73,29.62,10,10,10,35,9,41,0.00,0,,279
2013-6-12,87,69,51,45,37,19,52,31,10,29.95,29.86,29.75,10,10,9,23,7,30,0.00,0,,290
2013-6-13,90,72,54,49,35,16,72,40,8,29.98,29.72,29.56,10,10,9,46,13,62,0.00,0,,246
2013-6-14,78,63,47,37,21,5,54,30,6,30.03,29.86,29.77,10,10,10,25,11,33,0.00,0,,279
2013-6-15,79,61,42,34,27,17,46,31,16,30.03,29.94,29.83,10,10,10,15,6,18,0.00,0,,285
2013-6-16,87,67,46,36,27,19,41,25,8,29.96,29.90,29.81,10,10,10,22,6,29,0.00,0,,10
2013-6-17,86,68,50,43,39,31,63,39,15,30.02,29.94,29.84,10,10,10,17,5,24,0.00,0,,299
2013-6-18,85,69,53,46,38,31,61,38,15,29.92,29.79,29.66,10,10,9,38,7,45,T,1,Rain,273
2013-6-19,89,70,51,41,27,9,59,33,7,29.66,29.55,29.40,10,10,9,35,13,43,0.00,0,,250
2013-6-20,78,62,45,26,20,8,40,25,10,29.90,29.76,29.63,10,10,10,25,9,32,0.00,0,,189
2013-6-21,83,68,52,34,27,17,38,24,9,29.84,29.78,29.68,10,10,10,28,7,39,0.00,0,,238
2013-6-22,78,65,52,47,37,17,66,39,11,30.01,29.81,29.68,10,10,2,28,8,37,0.05,2,Rain,303
2013-6-23,83,62,41,39,31,23,70,41,12,29.92,29.76,29.62,10,10,10,25,7,31,0.00,0,,252
2013-6-24,88,71,54,39,31,26,42,27,11,29.81,29.56,29.49,10,10,10,33,10,46,0.00,0,,266
2013-6-25,82,69,55,41,37,33,59,39,19,29.83,29.74,29.62,10,10,10,23,7,29,0.00,1,Rain,256
2013-6-26,92,73,53,44,40,36,55,36,16,30.05,29.88,29.82,10,10,10,22,7,30,0.00,1,,281
2013-6-27,96,76,55,48,39,34,52,32,12,30.07,30.01,29.96,10,10,10,18,5,24,0.00,0,,287
2013-6-28,94,79,63,51,46,40,52,35,18,30.13,30.06,29.97,10,10,10,14,7,20,0.00,0,,329
2013-6-29,89,75,61,49,47,39,56,40,23,30.25,30.06,29.96,10,10,10,26,8,38,T,2,Rain,286
2013-6-30,90,75,59,48,45,37,60,41,21,30.06,30.01,29.94,10,10,9,35,6,41,T,1,Rain,326